Tracking 23448 objects as of 23-Jun-2021
HD Live streaming from Space Station
objects crossing your sky now

DELTA 1 DEB

Track DELTA 1 DEB now!
10-day predictions


NORAD ID: 24911
Int'l Code: 1981-070M
Perigee: 515.0 km
Apogee: 23,238.1 km
Inclination: 90.0 °
Period: 408.9 minutes
Semi major axis: 18247 km
RCS: 0.038 m2 (small)
Launch date: August 3, 1981
Source: United States (US)
Launch site: AIR FORCE WESTERN TEST RANGE (AFWTR)

Note: This is SATELLITE DEBRIS
aabbcc
Your satellite tracking list
Your tracking list is empty




NASA's NSSDC Master Catalog

Two Line Element Set (TLE):
1 24911U 81070M   19216.43142363 +.00000019 +00000-0 +22643-4 0  9999
2 24911 090.0117 035.4764 6226338 328.5151 011.8889 03.52205340282574
Source of the keplerian elements: AFSPC